Probability
0 0 0 0 0 0 0 0 0 0 0 0 0 0 0 0 0 0 0 0 0 0 0 0 0 0 0 0 0 0 0 0 0 0 0 0 0 0 0 0 0 0 0
0 0 0 0 0 0 0 0 0 0 0 0 0 0 0 0 0 0 0 0 0 0 0 0 0 0 0 0 0 0 0 0 0 0 0 0 0 0 0 0 0 0 0
0 0 0 0 0 0 0 0 0 0 0 0 0 0 0 0 0 0 0 0 0 0 0 0 0 0 0 0 0 0 0 0 0 0 0 0 0 0 0 0 0 0 0
0 0 0 0 0 0 0 0 0 0 0 0 0 0 0 0 0 0 0 0 0 0 0 0 0 0 0 0 0 0 0 0 0 0 0 0 0 0 0 0 0 0 0
0 0 0 0 0 1 0 0 0 0 0 0 0 0 0 0 0 0 0 0 0 0 0 0 0 0 0 0 0 0 0 0 0 0 0 0 0 0 0 0 0 0 0
0 0 0 0 0 1 1 0 0 0 0 0 0 0 0 0 0 0 0 0 0 0 0 0 0 0 0 0 0 0 0 0 0 0 0 0 0 0 0 0 0 0 0
0 0 0 0 1 2 2 1 0 0 0 0 0 0 0 0 0 0 0 0 0 0 0 0 0 0 0 0 0 0 0 0 0 0 0 0 0 0 0 0 0 0 0
0 0 0 0 1 3 3 2 1 0 0 0 0 0 0 0 0 0 0 0 0 0 0 0 0 0 0 0 0 0 0 0 0 0 0 0 0 0 0 0 0 0 0
0 0 0 1 2 3 3 2 1 0 0 0 0 0 0 0 0 1 0 0 0 0 0 0 0 0 0 0 0 0 0 0 0 0 0 0 0 0 0 0 0 0 0
0 1 1 1 3 3 3 2 0 0 0 0 0 0 0 0 0 0 0 0 0 0 0 0 0 0 0 0 0 0 0 0 0 0 0 0 0 0 0 0 0 0 0
1 1 2 3 3 3 3 2 1 1 0 0 0 0 0 0 0 0 0 0 0 0 0 0 0 0 0 0 0 0 0 0 0 0 0 0 0 0 1 1 0 0 0
0 1 3 3 3 3 3 3 3 2 1 0 0 0 0 0 0 0 0 0 0 0 0 0 0 0 0 0 0 0 0 0 0 0 0 0 0 0 0 1 1 1 1
0 1 2 3 3 3 3 3 3 3 1 0 0 0 0 0 0 0 0 0 0 0 0 0 0 0 0 0 0 0 0 0 0 0 0 0 0 0 0 0 0 1 1
0 0 1 3 3 3 3 3 3 3 2 1 0 0 0 0 0 0 0 0 0 0 0 0 0 0 0 0 0 0 0 0 0 0 0 0 0 0 0 0 0 0 1
0 0 1 2 3 3 3 3 3 3 3 2 1 0 0 0 0 0 0 0 0 0 0 0 0 0 0 0 0 0 0 0 0 0 0 0 0 0 0 0 0 0 0
0 1 2 2 3 3 3 3 3 3 3 2 1 0 0 0 0 0 0 0 0 0 0 0 0 0 0 0 0 0 0 0 0 0 0 0 0 0 0 0 0 0 0
0 1 2 3 3 3 3 3 3 3 3 2 1 0 0 0 0 0 0 0 0 0 0 0 0 0 0 0 0 0 0 0 0 0 0 0 0 0 0 0 0 0 0
0 0 1 3 4 4 3 3 3 3 3 2 1 0 0 0 0 0 0 0 0 0 0 0 0 0 0 0 0 0 0 0 0 0 0 0 0 0 0 0 0 0 0
0 0 0 1 3 4 4 3 3 3 3 2 0 0 0 0 0 0 0 0 0 0 0 0 0 0 0 0 0 0 0 0 0 0 0 0 0 0 0 0 0 0 0
0 0 0 1 2 3 3 3 3 3 3 2 1 0 0 0 0 0 0 0 0 0 0 0 0 0 0 0 0 0 0 0 0 0 0 0 0 0 0 0 0 0 0
0 0 1 1 1 1 3 3 3 3 3 2 1 0 0 0 0 0 0 0 0 0 0 0 0 0 0 0 0 0 0 0 0 0 0 0 0 0 0 0 0 0 0
0 0 1 1 1 1 2 3 3 3 3 2 1 0 0 0 0 0 0 0 0 0 0 0 0 0 0 0 0 0 0 0 0 0 0 0 0 0 0 0 0 0 0
0 0 0 0 0 1 2 3 3 3 3 2 1 0 0 0 0 0 0 0 0 0 0 0 0 0 0 0 0 0 0 0 0 0 0 0 0 0 0 0 0 0 0
0 0 0 0 0 1 2 3 3 3 3 2 1 0 0 0 0 0 0 0 0 0 0 0 0 0 0 0 0 0 0 0 0 0 0 0 0 0 0 0 0 0 0
0 0 0 0 0 0 1 2 3 3 2 1 0 0 0 0 0 0 0 0 0 0 0 0 0 0 0 0 0 0 0 0 0 0 0 0 0 0 0 0 0 0 0
0 0 0 0 0 0 0 1 3 3 2 1 0 0 0 0 0 0 0 0 0 0 0 0 0 0 0 0 0 0 0 0 0 0 0 0 0 0 0 0 0 0 0
Wind_Speed
2 2 1 3 6 8 9 9 10 10 10 11 11 11 11 11 10 10 10 10 10 10 11 11 11 12 12 12 12 12 12 11 11 11 10 10 10 10 10 10 9 6 10
1 1 2 4 6 8 9 9 9 9 9 10 10 10 10 10 10 10 9 9 9 10 10 11 11 11 11 11 11 11 11 11 11 10 10 8 8 9 9 9 8 5 9
2 1 2 4 7 8 8 9 9 9 9 9 10 10 10 9 9 9 9 8 8 9 10 10 10 10 10 10 10 10 10 10 10 9 9 5 5 8 8 8 8 8 8
2 2 3 5 7 7 8 8 8 8 9 9 9 9 9 9 9 9 9 8 8 9 9 9 9 9 9 9 9 9 9 9 9 9 5 4 3 6 7 7 8 7 7
3 3 3 6 7 8 7 8 8 8 8 8 8 9 8 8 8 8 8 8 8 8 9 9 9 9 9 8 8 8 8 8 8 7 4 4 3 5 6 6 6 6 6
4 3 3 6 7 8 7 7 7 7 7 7 8 8 8 8 7 7 8 8 8 8 8 8 9 8 8 8 7 7 7 7 6 4 3 3 3 4 4 5 5 5 5
4 4 4 7 7 8 8 7 7 7 7 7 7 7 7 7 7 7 7 7 8 7 8 8 8 8 8 8 8 7 7 7 4 3 3 3 3 4 4 4 4 4 4
5 4 4 7 7 7 8 7 7 7 7 7 7 7 7 7 7 6 6 7 6 6 6 7 7 8 8 8 8 8 7 6 4 3 3 2 3 4 3 3 4 4 4
5 5 4 4 5 6 7 7 7 7 7 7 7 7 6 6 7 7 7 6 6 6 6 6 7 7 7 7 7 8 7 7 4 2 3 2 5 5 4 4 4 4 4
4 4 4 4 4 4 4 6 7 7 7 7 7 7 6 6 6 7 7 6 6 6 6 6 7 7 7 7 7 7 7 6 3 3 2 3 6 5 5 5 5 5 5
4 3 3 3 3 3 3 4 5 5 6 6 6 6 6 4 3 4 5 6 6 6 5 6 6 6 6 6 7 7 5 3 3 2 2 5 6 6 5 5 5 5 6
2 2 2 2 2 3 3 3 3 3 3 3 3 3 3 3 3 4 5 6 6 6 6 6 6 6 5 3 4 5 2 3 2 2 3 7 7 6 5 5 5 6 6
1 1 1 1 2 2 2 2 2 2 2 2 3 3 2 2 2 3 2 3 4 5 4 4 4 3 3 2 2 2 2 2 2 2 3 7 7 7 6 6 6 6 6
2 1 1 1 2 2 2 2 2 1 1 1 2 2 2 1 2 2 2 2 2 2 2 2 2 3 3 2 2 2 3 2 2 2 3 7 8 8 7 7 6 6 6
2 1 1 1 1 2 2 2 2 1 1 1 1 1 2 1 1 1 1 1 2 2 2 2 2 3 3 3 2 2 2 2 2 2 2 6 8 9 9 8 8 8 8
2 1 1 1 1 2 2 1 1 1 1 1 1 1 1 1 1 1 1 1 1 1 1 1 2 2 2 2 2 2 2 2 2 2 2 4 7 8 9 10 9 9 9
2 1 1 1 1 2 2 2 1 1 1 1 1 1 2 1 1 1 1 1 1 1 1 1 2 2 2 2 3 3 2 2 2 2 2 2 3 6 9 9 10 10 10
2 2 1 1 1 2 2 2 1 1 1 1 1 1 1 2 2 1 1 1 1 1 1 1 1 1 2 2 2 2 2 2 2 2 2 2 2 3 6 9 10 11 11
3 3 2 2 1 2 2 2 2 2 2 1 1 1 1 1 1 1 1 1 1 1 1 1 1 1 1 2 2 2 2 2 2 2 2 2 2 2 3 6 9 10 12
3 3 2 2 1 1 2 2 2 2 1 1 1 1 1 1 1 1 1 1 1 1 1 2 1 1 1 2 2 2 2 2 1 2 2 2 2 3 3 4 4 6 11
2 3 3 3 2 1 1 1 1 1 0 1 1 1 2 1 1 1 1 1 1 1 1 2 1 2 2 2 1 2 2 1 1 1 1 1 2 3 3 3 3 3 4
3 3 3 3 3 2 1 1 1 1 1 0 1 1 2 2 1 1 1 1 1 1 2 2 2 1 2 2 1 1 2 3 1 1 1 1 1 2 3 4 3 3 3
4 4 4 4 3 2 2 2 2 1 1 1 1 1 2 2 2 2 2 2 2 1 1 2 2 1 1 1 1 0 0 2 3 2 1 1 2 2 2 3 3 4 4
4 3 3 3 3 3 3 3 3 2 1 1 0 0 1 2 2 2 2 2 2 2 2 2 2 1 1 1 1 1 1 1 2 3 2 2 2 2 2 3 3 3 3
3 3 3 3 3 2 3 3 3 2 1 1 1 1 1 1 2 2 2 1 1 1 2 2 2 2 1 1 1 1 1 1 2 2 4 3 3 1 2 2 2 3 3
2 2 3 3 3 3 3 3 3 3 2 2 1 1 1 1 1 2 2 2 2 1 1 1 1 1 1 1 1 1 1 1 2 2 4 4 4 3 2 1 2 2 3
Wind_Direction
293 283 238 94 110 108 105 101 98 96 95 93 92 90 87 86 84 83 81 80 82 82 80 76 74 74 72 71 68 65 63 62 62 63 63 66 72 74 72 69 65 55 62
235 232 125 97 109 109 104 100 101 98 95 94 92 90 87 85 84 84 82 81 82 84 82 78 76 77 76 74 70 67 65 66 63 58 53 54 67 74 73 70 69 65 62
99 108 116 94 101 106 106 103 100 98 95 95 93 90 88 85 84 82 79 78 79 83 82 80 78 78 79 76 73 70 67 65 61 56 48 33 46 69 68 64 62 62 59
97 90 95 90 96 100 105 105 101 99 98 97 95 90 88 85 82 81 78 75 76 77 80 80 78 78 76 75 72 69 66 62 58 52 38 22 17 59 63 60 55 55 53
79 74 83 89 96 99 100 104 102 101 103 100 97 93 91 88 83 80 79 75 72 72 77 79 78 77 73 70 67 65 63 59 55 47 30 17 10 44 56 54 51 47 43
76 68 83 88 96 97 97 95 99 101 101 100 97 94 92 89 85 79 79 76 73 69 72 75 75 73 69 65 62 61 57 58 52 40 23 7 357 23 45 46 42 41 38
81 61 76 85 88 92 92 91 87 91 95 97 96 93 90 88 84 80 76 73 70 66 67 72 73 69 65 61 58 57 55 57 54 36 14 352 345 14 30 33 30 30 26
90 70 65 71 74 78 83 81 82 81 81 84 89 88 87 85 80 74 71 70 66 62 62 68 68 66 62 59 55 53 53 52 46 27 3 342 351 2 13 17 13 13 10
77 69 58 60 66 68 72 73 72 72 72 71 72 74 76 77 73 67 62 63 61 58 57 64 61 58 56 53 51 50 50 47 43 16 358 338 349 358 10 14 10 4 0
75 68 62 57 60 60 61 66 67 66 64 65 65 60 60 64 66 63 54 54 54 52 52 57 55 53 50 47 46 46 46 43 29 11 350 344 355 1 10 14 11 5 0
68 61 64 63 60 61 67 60 59 61 56 57 57 56 57 48 47 51 46 46 45 41 45 50 50 52 49 43 41 40 40 31 22 8 345 354 357 357 357 359 357 358 356
72 52 53 61 61 61 59 60 49 51 51 48 50 52 47 48 42 44 38 38 35 32 39 43 44 44 45 30 28 33 29 23 22 0 353 358 357 357 358 359 360 359 358
147 83 50 54 63 68 66 67 57 47 50 48 47 47 47 52 45 41 36 26 26 32 30 27 28 27 27 24 21 21 21 22 9 352 350 357 354 351 350 350 354 355 354
141 127 71 71 80 76 76 79 81 66 57 54 46 51 59 61 53 44 41 24 26 23 25 25 21 18 17 14 20 21 15 9 358 347 351 358 356 351 348 346 348 347 347
159 166 137 112 105 91 83 75 82 74 59 45 50 48 61 73 67 60 45 40 25 20 25 19 17 12 9 2 9 16 4 357 351 349 347 1 360 357 354 349 347 347 347
175 181 158 123 122 115 107 98 96 90 74 55 56 46 53 67 65 67 51 40 19 7 8 22 17 9 360 357 355 349 341 340 340 341 342 354 3 2 0 357 351 347 346
186 172 147 129 105 126 125 117 102 90 81 65 38 45 55 59 69 68 56 35 9 360 6 20 20 19 11 6 354 343 340 335 332 333 342 353 359 9 7 2 357 350 346
172 164 165 127 117 121 117 114 105 91 85 73 42 43 52 55 57 68 58 21 7 22 13 13 23 20 6 355 340 333 336 336 340 340 3 14 12 11 11 9 3 358 352
180 174 171 145 135 132 117 107 99 92 84 69 54 42 39 48 63 67 52 11 16 34 21 7 16 15 348 339 324 326 336 342 341 357 21 23 23 23 11 7 7 3 358
181 174 170 146 130 123 113 103 98 84 72 60 52 20 34 36 43 66 55 19 23 38 25 16 354 2 337 324 322 330 327 322 346 10 14 21 24 19 6 4 359 356 358
178 174 175 158 149 131 122 124 119 110 51 45 36 17 26 36 38 51 37 31 35 39 12 5 355 359 354 342 339 333 325 320 360 7 19 24 18 9 7 7 358 354 348
191 190 186 176 168 171 162 154 151 149 143 106 44 33 26 24 23 49 48 34 27 31 23 15 9 354 355 8 358 340 331 333 3 0 348 3 351 360 11 5 356 355 349
197 199 195 182 173 175 154 124 99 85 68 42 18 15 10 21 31 36 41 40 26 38 24 8 4 3 330 347 5 56 264 280 315 322 345 348 356 5 359 354 353 348 347
207 196 187 174 165 171 160 153 154 158 177 230 260 8 16 26 33 42 49 49 39 31 19 2 15 355 352 313 328 335 275 256 274 304 314 333 350 357 343 342 340 341 346
195 187 186 176 169 165 161 163 162 162 172 134 89 88 50 33 34 40 52 59 51 38 19 12 10 9 343 294 295 301 299 300 267 258 288 314 326 311 305 315 324 337 343
179 182 179 176 181 170 163 167 169 163 156 145 135 105 57 46 39 36 48 51 47 38 19 1 3 6 344 334 313 303 290 282 285 269 273 287 295 294 296 301 317 327 333